DW7888 Weather Reports


time (UTC)temp
F
wind
direction
speed
knots
gust
knots
rain 1hr
in
rain 24hr
in
rain mn
in
humidity
%
barometer
mb
20260902204508 94 242 0.9 3.5 0.00 0.00 0.00 58 1017.1
20260902204003 95 315 0.9 4.3 0.00 0.00 0.00 57 1017.1
20260902203506 95 355 0.9 4.3 0.00 0.00 0.00 56 1017.1
20260902203008 95 296 0.9 4.3 0.00 0.00 0.00 56 1017.1
20260902202506 96 46 0.9 5.2 0.00 0.00 0.00 56 1017.1
20260902202006 96 69 0.9 7.0 0.00 0.00 0.00 55 1017.2
20260902201509 96 128 2.6 7.0 0.00 0.00 0.00 55 1017.3
20260902201004 96 147 1.7 3.5 0.00 0.00 0.00 56 1017.3
20260902200511 96 343 1.7 3.5 0.00 0.00 0.00 53 1017.3
20260902200011 96 306 0.0 3.5 0.00 0.00 0.00 54 1017.4
20260902195506 96 294 0.0 3.5 0.00 0.00 0.00 53 1017.4
20260902195007 96 204 0.0 3.5 0.00 0.00 0.00 52 1017.3
20260902194526 95 302 0.0 3.5 0.00 0.00 0.00 54 1017.2
20260902194004 95 312 0.9 3.5 0.00 0.00 0.00 53 1017.2
20260902193504 95 345 0.9 4.3 0.00 0.00 0.00 55 1017.1
20260902193010 95 195 1.7 4.3 0.00 0.00 0.00 55 1017.1
20260902192508 96 109 0.9 4.3 0.00 0.00 0.00 57 1017.2
20260902192008 95 288 0.9 4.3 0.00 0.00 0.00 54 1017.3
20260902191512 95 42 1.7 4.3 0.00 0.00 0.00 53 1017.3
20260902191007 95 42 0.9 3.5 0.00 0.00 0.00 53 1017.3
20260902190507 95 107 0.9 2.6 0.00 0.00 0.00 56 1017.5
20260902190010 95 349 0.0 4.3 0.00 0.00 0.00 56 1017.5
20260902185508 95 325 0.0 4.3 0.00 0.00 0.00 56 1017.6
20260902185011 95 286 0.9 4.3 0.00 0.00 0.00 61 1017.7
20260902184509 94 325 0.9 2.6 0.00 0.00 0.00 58 1017.7
20260902184007 94 347 0.0 3.5 0.00 0.00 0.00 57 1017.7
20260902183509 95 269 0.0 5.2 0.00 0.00 0.00 57 1017.8
20260902183012 95 319 0.0 5.2 0.00 0.00 0.00 57 1017.8
20260902182508 96 321 0.0 4.3 0.00 0.00 0.00 57 1017.8
20260902182008 94 337 0.9 3.5 0.00 0.00 0.00 58 1017.9
20260902181514 94 59 0.0 3.5 0.00 0.00 0.00 58 1017.9
20260902181009 94 329 0.9 3.5 0.00 0.00 0.00 59 1018.0
20260902180509 94 5 0.9 3.5 0.00 0.00 0.00 56 1018.0
20260902180014 95 352 0.9 5.2 0.00 0.00 0.00 56 1018.0
20260902175512 95 324 0.9 5.2 0.00 0.00 0.00 57 1018.0
20260902175008 94 304 0.9 5.2 0.00 0.00 0.00 59 1018.0
20260902174515 94 15 0.9 4.3 0.00 0.00 0.00 57 1018.0
20260902174010 95 38 0.9 3.5 0.00 0.00 0.00 55 1018.0
20260902173512 95 219 0.0 3.5 0.00 0.00 0.00 59 1018.0
20260902173023 95 122 0.9 2.6 0.00 0.00 0.00 58 1017.9
20260902172509 94 293 0.9 4.3 0.00 0.00 0.00 58 1018.0
20260902172011 94 324 1.7 4.3 0.00 0.00 0.00 58 1018.0
20260902171518 94 352 2.6 4.3 0.00 0.00 0.00 56 1018.0
20260902171014 93 327 0.9 3.5 0.00 0.00 0.00 59 1018.0
20260902170510 93 132 0.9 3.5 0.00 0.00 0.00 58 1018.1
20260902170019 94 321 0.9 3.5 0.00 0.00 0.00 60 1018.0
20260902165510 94 51 0.9 3.5 0.00 0.00 0.00 58 1018.0
20260902165014 93 15 0.9 3.5 0.00 0.00 0.00 58 1018.1
20260902164518 94 320 0.9 3.5 0.00 0.00 0.00 58 1018.1
20260902164011 93 127 0.9 3.5 0.00 0.00 0.00 62 1018.1
20260902163511 93 350 0.9 3.5 0.00 0.00 0.00 58 1018.1
20260902163018 93 193 0.0 4.3 0.00 0.00 0.00 66 1018.1
20260902162509 93 30 0.9 4.3 0.00 0.00 0.00 61 1018.1
20260902162013 93 115 0.0 3.5 0.00 0.00 0.00 60 1018.2
20260902161520 92 30 1.7 3.5 0.00 0.00 0.00 58 1018.2
20260902161017 92 34 0.9 4.3 0.00 0.00 0.00 60 1018.2
20260902160512 92 158 0.9 4.3 0.00 0.00 0.00 62 1018.3
20260902160022 92 42 0.0 4.3 0.00 0.00 0.00 61 1018.3
20260902155510 92 24 0.0 4.3 0.00 0.00 0.00 60 1018.3
20260902155014 91 349 1.7 4.3 0.00 0.00 0.00 60 1018.3
20260902154515 91 355 0.0 2.6 0.00 0.00 0.00 62 1018.3
20260902154005 92 230 0.0 3.5 0.00 0.00 0.00 63 1018.4
20260902153504 91 27 0.9 3.5 0.00 0.00 0.00 64 1018.3
20260902153016 92 192 0.0 2.6 0.00 0.00 0.00 65 1018.3
20260902152505 91 305 0.0 6.1 0.00 0.00 0.00 63 1018.4
20260902152007 90 329 0.9 6.1 0.00 0.00 0.00 63 1018.5
20260902151526 91 117 0.9 4.3 0.00 0.00 0.00 69 1018.5
20260902151005 90 327 0.9 4.3 0.00 0.00 0.00 62 1018.6
20260902150508 89 331 0.0 4.3 0.00 0.00 0.00 66 1018.7
20260902150022 89 22 0.9 2.6 0.00 0.00 0.00 63 1018.6
20260902145503 89 209 0.9 3.5 0.00 0.00 0.00 67 1018.6
20260902145008 88 315 0.9 3.5 0.00 0.00 0.00 67 1018.5
20260902144523 88 319 0.9 2.6 0.00 0.00 0.00 67 1018.4
20260902144004 88 321 0.9 2.6 0.00 0.00 0.00 67 1018.4
20260902143508 87 318 0.9 2.6 0.00 0.00 0.00 69 1018.4
20260902143026 87 330 0.9 3.5 0.00 0.00 0.00 68 1018.5
20260902142506 87 49 0.0 3.5 0.00 0.00 0.00 69 1018.4
20260902142008 87 355 0.9 2.6 0.00 0.00 0.00 70 1018.4
20260902141532 86 304 0.0 2.6 0.00 0.00 0.00 71 1018.5
20260902141005 86 44 0.9 2.6 0.00 0.00 0.00 73 1018.4
20260902140507 85 342 0.9 2.6 0.00 0.00 0.00 73 1018.5
20260902140024 85 317 0.0 2.6 0.00 0.00 0.00 74 1018.5
20260902135505 84 329 0.0 0.0 0.00 0.00 0.00 76 1018.5
20260902135010 83 54 0.0 0.0 0.00 0.00 0.00 77 1018.5
20260902134535 83 360 0.0 0.0 0.00 0.00 0.00 78 1018.4
20260902134005 83 306 0.0 0.0 0.00 0.00 0.00 79 1018.5
20260902133511 82 316 0.0 2.6 0.00 0.00 0.00 80 1018.4
20260902133025 82 331 0.0 2.6 0.00 0.00 0.00 81 1018.3
20260902132512 82 39 0.0 2.6 0.00 0.00 0.00 81 1018.3
20260902132011 81 44 0.0 1.7 0.00 0.00 0.00 82 1018.2
20260902131530 81 34 0.0 1.7 0.00 0.00 0.00 82 1018.3
20260902131004 81 350 0.9 2.6 0.00 0.00 0.00 82 1018.2
20260902130513 80 352 0.0 2.6 0.00 0.00 0.00 83 1018.2
20260902130027 80 350 0.0 0.9 0.00 0.00 0.00 83 1018.2
20260902125514 80 350 0.0 0.9 0.00 0.00 0.00 84 1018.2
20260902125017 79 350 0.0 1.7 0.00 0.00 0.00 85 1018.3
20260902124527 79 350 0.0 1.7 0.00 0.00 0.00 86 1018.2
20260902124007 78 350 0.0 0.9 0.00 0.00 0.00 89 1018.1
20260902123511 78 350 0.0 1.7 0.00 0.00 0.00 89 1018.2
20260902123028 77 350 0.0 1.7 0.00 0.00 0.00 90 1018.2
20260902122511 77 350 0.0 0.0 0.00 0.00 0.00 92 1018.2
20260902122012 76 350 0.0 0.0 0.00 0.00 0.00 93 1018.3
20260902121528 76 350 0.0 0.0 0.00 0.00 0.00 94 1018.2
20260902121006 75 350 0.0 0.0 0.00 0.00 0.00 94 1018.2
20260902120512 75 350 0.0 0.0 0.00 0.00 0.00 95 1018.1
20260902120029 75 350 0.0 0.0 0.00 0.00 0.00 95 1018.1
20260902115512 75 350 0.0 0.0 0.00 0.00 0.00 95 1018.1
20260902115014 75 350 0.0 0.0 0.00 0.00 0.00 95 1018.1
20260902114538 75 350 0.0 0.0 0.00 0.00 0.00 95 1018.0
20260902114011 74 350 0.0 0.0 0.00 0.00 0.00 95 1018.0
20260902113515 74 350 0.0 0.0 0.00 0.00 0.00 95 1018.1
20260902113026 74 350 0.0 0.0 0.00 0.00 0.00 95 1018.1
20260902112511 74 350 0.0 0.0 0.00 0.00 0.00 95 1018.0
20260902112015 74 350 0.0 0.0 0.00 0.00 0.00 95 1018.1
20260902111529 74 350 0.0 0.0 0.00 0.00 0.00 95 1018.1
20260902111011 74 351 0.0 0.0 0.00 0.00 0.00 95 1018.1
20260902110515 74 350 0.0 0.9 0.00 0.00 0.00 95 1018.1
20260902110032 74 350 0.0 0.9 0.00 0.00 0.00 95 1018.1
20260902105512 74 350 0.0 0.0 0.00 0.00 0.00 94 1018.1
20260902105014 74 350 0.0 0.0 0.00 0.00 0.00 94 1018.0
20260902104526 74 350 0.0 0.0 0.00 0.00 0.00 94 1017.9
20260902104012 74 350 0.0 0.0 0.00 0.00 0.00 94 1017.9
20260902103516 74 350 0.0 0.0 0.00 0.00 0.00 94 1017.8
20260902103012 74 350 0.0 0.0 0.00 0.00 0.00 94 1017.9
20260902102511 74 350 0.0 0.0 0.00 0.00 0.00 94 1017.8
20260902102017 74 350 0.0 0.0 0.00 0.00 0.00 94 1017.8
20260902101511 74 350 0.0 0.0 0.00 0.00 0.00 94 1017.8
20260902101016 74 350 0.0 0.0 0.00 0.00 0.00 94 1017.7
20260902100514 74 350 0.0 0.0 0.00 0.00 0.00 94 1017.6
20260902100012 74 350 0.0 0.9 0.00 0.00 0.00 94 1017.6
20260902095514 74 350 0.0 0.9 0.00 0.00 0.00 94 1017.6
20260902095016 74 350 0.0 0.0 0.00 0.00 0.00 95 1017.6
20260902094515 74 350 0.0 0.0 0.00 0.00 0.00 95 1017.6
20260902094012 74 350 0.0 0.0 0.00 0.00 0.00 95 1017.5
20260902093515 74 350 0.0 0.0 0.00 0.00 0.00 95 1017.5
20260902093012 74 350 0.0 0.0 0.00 0.00 0.00 95 1017.5
20260902092515 74 350 0.0 0.0 0.00 0.00 0.00 95 1017.5
20260902092022 74 350 0.0 0.0 0.00 0.00 0.00 95 1017.5
20260902091515 74 351 0.0 0.0 0.00 0.00 0.00 95 1017.5
20260902091015 74 350 0.0 0.0 0.00 0.00 0.00 95 1017.5
20260902090516 74 350 0.0 0.0 0.00 0.00 0.00 95 1017.4
20260902090016 74 350 0.0 0.0 0.00 0.00 0.00 95 1017.4
20260902085515 74 350 0.0 0.0 0.00 0.00 0.00 95 1017.3
20260902085018 74 351 0.0 0.0 0.00 0.00 0.00 94 1017.4
20260902084516 74 350 0.0 0.0 0.00 0.00 0.00 94 1017.4
20260902084021 74 350 0.0 0.0 0.00 0.00 0.00 94 1017.3
20260902083518 74 350 0.0 0.0 0.00 0.00 0.00 94 1017.3
20260902083017 74 350 0.0 0.0 0.00 0.00 0.00 94 1017.3
20260902082516 74 350 0.0 0.0 0.00 0.00 0.00 94 1017.3
20260902082021 74 350 0.0 0.0 0.00 0.00 0.00 94 1017.2
20260902081518 74 350 0.0 0.0 0.00 0.00 0.00 94 1017.2
20260902081020 74 351 0.0 0.0 0.00 0.00 0.00 94 1017.2
20260902080519 74 350 0.0 0.0 0.00 0.00 0.00 94 1017.2
20260902080022 74 350 0.0 0.0 0.00 0.00 0.00 94 1017.2
20260902075515 74 351 0.0 0.0 0.00 0.00 0.00 94 1017.2
20260902075019 74 350 0.0 0.0 0.00 0.00 0.00 94 1017.1
20260902074520 74 350 0.0 0.0 0.00 0.00 0.00 94 1017.1
20260902074017 74 350 0.0 0.0 0.00 0.00 0.00 94 1017.2
20260902073517 74 350 0.0 0.0 0.00 0.00 0.00 94 1017.2
20260902073023 74 350 0.0 0.0 0.00 0.00 0.00 93 1017.2
20260902072519 74 350 0.0 0.0 0.00 0.00 0.00 93 1017.2
20260902072019 74 350 0.0 0.0 0.00 0.00 0.00 93 1017.2
20260902071537 74 350 0.0 0.0 0.00 0.00 0.00 93 1017.1
20260902071019 74 350 0.0 0.0 0.00 0.00 0.00 93 1017.2
20260902070524 74 350 0.0 0.0 0.00 0.00 0.00 93 1017.2
20260902070026 74 350 0.0 0.0 0.00 0.00 0.00 93 1017.3
20260902065518 74 350 0.0 0.0 0.00 0.00 0.00 93 1017.2
20260902065019 74 350 0.0 0.0 0.00 0.00 0.00 93 1017.3
20260902064510 74 350 0.0 0.0 0.00 0.00 0.00 93 1017.2
20260902064006 74 350 0.0 0.0 0.00 0.00 0.00 93 1017.1
20260902063509 74 350 0.0 0.0 0.00 0.00 0.00 93 1017.1
20260902063004 75 350 0.0 0.0 0.00 0.00 0.00 93 1017.1
20260902062508 75 350 0.0 0.0 0.00 0.00 0.00 93 1017.1
20260902062013 75 350 0.0 0.0 0.00 0.00 0.00 92 1017.2
20260902061505 75 350 0.0 0.0 0.00 0.00 0.00 92 1017.1
20260902061009 75 350 0.0 0.0 0.00 0.00 0.00 92 1017.0
20260902060511 75 350 0.0 0.0 0.00 0.00 0.00 92 1016.8
20260902060004 75 350 0.0 0.0 0.00 0.00 0.00 92 1016.9
20260902055508 75 350 0.0 0.0 0.00 0.00 0.00 92 1016.9
20260902055014 75 350 0.0 0.0 0.00 0.00 0.00 91 1017.0
20260902054503 75 351 0.0 0.0 0.00 0.00 0.00 91 1017.1
20260902054005 75 350 0.0 0.0 0.00 0.00 0.00 91 1017.0
20260902053501 75 350 0.0 0.0 0.00 0.00 0.00 91 1017.0
20260902053006 75 351 0.0 0.0 0.00 0.00 0.00 91 1017.0
20260902052509 76 350 0.0 0.0 0.00 0.00 0.00 91 1017.1
20260902052002 76 350 0.0 0.0 0.00 0.00 0.00 91 1017.2
20260902051508 76 350 0.0 0.0 0.00 0.00 0.00 91 1017.2
20260902051009 76 350 0.0 0.0 0.00 0.00 0.00 91 1017.2
20260902050504 76 350 0.0 0.0 0.00 0.00 0.00 91 1017.2
20260902050008 76 350 0.0 0.0 0.00 0.00 0.00 91 1017.1
20260902045510 76 351 0.0 0.0 0.00 0.00 0.00 91 1017.1
20260902045002 77 350 0.0 0.0 0.00 0.00 0.00 91 1016.9
20260902044513 77 350 0.0 0.0 0.00 0.00 0.00 91 1016.9
20260902044010 77 350 0.0 0.0 0.00 0.00 0.00 91 1016.8
20260902043503 77 350 0.0 0.0 0.00 0.00 0.00 91 1016.7
20260902043008 77 350 0.0 0.0 0.00 0.00 0.00 91 1016.8
20260902042509 77 350 0.0 0.0 0.00 0.00 0.00 91 1016.7
20260902042002 77 350 0.0 0.0 0.00 0.00 0.00 91 1016.7
20260902041507 77 350 0.0 0.0 0.00 0.00 0.00 91 1016.6
20260902041014 77 350 0.0 0.0 0.00 0.00 0.00 91 1016.6
20260902040504 78 350 0.0 0.0 0.00 0.00 0.00 91 1016.6
20260902040008 78 350 0.0 0.0 0.00 0.00 0.00 91 1016.6
20260902035512 78 350 0.0 0.0 0.00 0.00 0.00 90 1016.5
20260902035002 78 350 0.0 0.0 0.00 0.00 0.00 90 1016.4
20260902034511 78 350 0.0 0.0 0.00 0.00 0.00 90 1016.4
20260902034011 78 350 0.0 0.0 0.00 0.00 0.00 90 1016.3
20260902033503 78 350 0.0 0.0 0.00 0.00 0.00 90 1016.3
20260902033010 78 350 0.0 0.0 0.00 0.00 0.00 90 1016.2
20260902032516 78 350 0.0 0.0 0.00 0.00 0.00 90 1016.2
20260902032002 78 350 0.0 0.0 0.00 0.00 0.00 90 1016.3
20260902031516 78 350 0.0 0.0 0.00 0.00 0.00 90 1016.3
20260902031014 78 350 0.0 0.0 0.00 0.00 0.00 89 1016.2
20260902030502 78 350 0.0 0.0 0.00 0.00 0.00 89 1016.3
20260902030014 78 350 0.0 0.0 0.00 0.00 0.00 89 1016.3
20260902025514 78 350 0.0 0.0 0.00 0.00 0.00 89 1016.3
20260902025003 78 350 0.0 0.0 0.00 0.00 0.00 88 1016.2
20260902024511 78 350 0.0 0.0 0.00 0.00 0.00 88 1016.2
20260902024017 78 350 0.0 0.0 0.00 0.00 0.00 87 1016.2
20260902023505 78 350 0.0 0.0 0.00 0.00 0.00 87 1016.2
20260902023015 78 350 0.0 0.0 0.00 0.00 0.00 87 1016.2
20260902022513 78 350 0.0 0.0 0.00 0.00 0.00 87 1016.2
20260902022005 79 350 0.0 0.0 0.00 0.00 0.00 87 1016.3
20260902021520 79 350 0.0 0.0 0.00 0.00 0.00 87 1016.3
20260902021012 79 350 0.0 0.0 0.00 0.00 0.00 87 1016.3
20260902020503 79 350 0.0 0.0 0.00 0.00 0.00 86 1016.3
20260902020016 79 350 0.0 0.0 0.00 0.00 0.00 86 1016.2
20260902015513 79 350 0.0 0.0 0.00 0.00 0.00 85 1016.1
20260902015006 79 350 0.0 0.0 0.00 0.00 0.00 85 1016.1
20260902014535 79 350 0.0 0.0 0.00 0.00 0.00 85 1015.8
20260902014013 79 350 0.0 0.0 0.00 0.00 0.00 85 1015.8
20260902013506 79 350 0.0 0.0 0.00 0.00 0.00 83 1015.7
20260902013017 80 350 0.0 0.0 0.00 0.00 0.00 83 1015.7
20260902012519 80 350 0.0 0.0 0.00 0.00 0.00 82 1015.6
20260902012005 80 350 0.0 0.0 0.00 0.00 0.00 81 1015.5
20260902011521 80 350 0.0 0.0 0.00 0.00 0.00 81 1015.5
20260902011014 80 350 0.0 0.0 0.00 0.00 0.00 80 1015.5
20260902010507 80 350 0.0 0.0 0.00 0.00 0.00 80 1015.5
20260902010027 81 350 0.0 0.0 0.00 0.00 0.00 80 1015.5
20260902005514 81 350 0.0 0.0 0.00 0.00 0.00 79 1015.5
20260902005014 81 350 0.0 0.0 0.00 0.00 0.00 79 1015.5
20260902004534 81 350 0.0 0.0 0.00 0.00 0.00 79 1015.5
20260902004019 81 350 0.0 0.0 0.00 0.00 0.00 79 1015.4
20260902003508 82 350 0.0 0.0 0.00 0.00 0.00 78 1015.3
20260902003026 82 350 0.0 0.0 0.00 0.00 0.00 78 1015.2
20260902002514 82 350 0.0 0.0 0.00 0.00 0.00 77 1015.2
20260902002008 82 350 0.0 0.0 0.00 0.00 0.00 77 1015.2
20260902001524 83 350 0.0 0.0 0.00 0.00 0.00 76 1015.2
20260902001018 83 350 0.0 0.0 0.00 0.00 0.00 76 1015.2
20260902000509 83 350 0.0 0.0 0.00 0.00 0.00 75 1015.2
20260902000036 83 350 0.0 0.0 0.00 0.00 0.00 75 1015.2
20260901235510 84 350 0.0 0.9 0.00 0.00 0.00 75 1015.2
20260901235011 84 350 0.0 0.9 0.00 0.00 0.00 74 1015.2
20260901234543 85 350 0.0 0.0 0.00 0.00 0.00 74 1015.3
20260901234003 85 350 0.0 0.0 0.00 0.00 0.00 73 1015.2
20260901233512 85 350 0.0 0.0 0.00 0.00 0.00 73 1015.1
20260901233029 86 350 0.0 0.0 0.00 0.00 0.00 72 1015.2
20260901232507 86 350 0.0 0.0 0.00 0.00 0.00 71 1015.2
20260901232013 87 350 0.0 0.0 0.00 0.00 0.00 70 1015.3
20260901231532 87 350 0.0 0.0 0.00 0.00 0.00 71 1015.2
20260901231006 88 350 0.0 0.0 0.00 0.00 0.00 70 1015.3
20260901230512 88 350 0.0 0.0 0.00 0.00 0.00 69 1015.3
20260901230034 89 350 0.0 0.9 0.00 0.00 0.00 68 1015.3
20260901225508 89 350 0.0 0.9 0.00 0.00 0.00 67 1015.3
20260901225012 90 350 0.0 0.0 0.00 0.00 0.00 67 1015.4
20260901224532 90 350 0.0 0.0 0.00 0.00 0.00 66 1015.5
20260901224008 91 350 0.0 0.0 0.00 0.00 0.00 63 1015.5
20260901223513 91 350 0.0 0.0 0.00 0.00 0.00 63 1015.4
20260901223029 91 350 0.0 0.0 0.00 0.00 0.00 58 1015.5
20260901222507 91 350 0.0 0.0 0.00 0.00 0.00 57 1015.5
20260901222012 92 350 0.0 1.7 0.00 0.00 0.00 56 1015.6
20260901221557 92 350 0.0 1.7 0.00 0.00 0.00 55 1015.6
20260901221009 92 350 0.0 2.6 0.00 0.00 0.00 56 1015.6
20260901220513 92 326 0.0 2.6 0.00 0.00 0.00 55 1015.6
20260901220032 92 325 0.0 1.7 0.00 0.00 0.00 54 1015.6
20260901215512 92 325 0.0 1.7 0.00 0.00 0.00 56 1015.6
20260901215019 92 325 0.0 1.7 0.00 0.00 0.00 53 1015.6
20260901214508 92 324 0.0 1.7 0.00 0.00 0.00 54 1015.7
20260901214011 93 142 0.0 1.7 0.00 0.00 0.00 54 1015.6
20260901213502 93 142 0.0 1.7 0.00 0.00 0.00 53 1015.7
20260901213035 93 142 0.0 1.7 0.00 0.00 0.00 53 1015.7
20260901212510 93 344 0.0 3.5 0.00 0.00 0.00 53 1015.7
20260901212019 93 345 0.9 3.5 0.00 0.00 0.00 52 1015.7
20260901211536 93 343 0.0 3.5 0.00 0.00 0.00 53 1015.8
20260901211012 93 352 0.0 3.5 0.00 0.00 0.00 52 1015.8
20260901210504 93 5 0.9 3.5 0.00 0.00 0.00 53 1015.8
20260901210016 93 46 0.9 2.6 0.00 0.00 0.00 54 1015.8
20260901205513 93 333 0.0 3.5 0.00 0.00 0.00 52 1015.9
20260901205002 93 343 0.0 3.5 0.00 0.00 0.00 52 1015.9